Theta_e
305 305 308 310 308 309 309 310 310 310 308 307 308 309 308 310 312 312 313 313 312 311 311 312 311 313 311 311 311 310 310 312 307 307 308 310 312 318 316 318 321 321 322
305 306 308 310 309 308 308 310 311 310 310 309 309 307 308 310 309 310 311 310 311 310 310 310 309 312 309 310 311 308 307 310 310 307 308 310 312 312 314 316 316 317 318
306 306 309 310 311 309 307 309 311 311 311 312 309 309 309 307 308 309 310 308 307 308 307 307 307 310 310 310 310 310 310 310 310 310 308 309 311 312 312 313 315 316 316
307 307 308 309 310 311 310 310 311 313 312 312 310 309 306 307 307 308 310 310 309 308 308 309 309 308 309 310 310 310 311 310 309 309 308 308 311 311 312 313 313 313 315
306 307 309 310 310 312 312 311 311 313 312 311 312 309 306 305 304 306 307 310 312 312 311 310 312 315 314 311 310 310 311 309 308 309 308 308 310 311 312 311 312 311 313
307 307 310 311 312 312 311 310 309 309 310 310 311 310 307 304 303 304 305 305 311 313 312 312 312 310 308 310 311 309 311 310 309 309 307 309 309 310 311 311 310 310 306
307 308 309 311 311 312 311 311 309 308 309 309 310 310 308 306 301 302 303 303 307 309 309 312 312 310 308 309 310 310 309 309 310 312 311 311 311 312 312 308 308 308 307
308 308 309 310 311 312 311 310 308 308 308 308 310 310 309 308 302 301 301 303 304 308 311 311 312 312 308 309 310 309 309 311 311 311 312 312 313 312 311 308 307 306 306
309 309 310 310 310 310 310 309 310 309 308 307 310 312 310 312 303 301 301 304 304 305 308 310 312 311 302 303 309 307 307 306 304 307 305 304 303 302 306 306 305 305 303
311 311 310 310 311 311 309 309 311 310 309 311 309 309 308 310 304 301 301 303 304 303 307 310 307 309 299 300 307 305 304 302 302 303 305 305 304 306 303 309 306 305 303
312 312 311 311 311 312 310 310 309 310 312 312 310 310 309 308 309 300 299 304 305 304 303 305 307 299 297 297 299 306 305 303 301 301 304 305 307 309 307 307 308 307 304
312 312 312 311 312 312 312 311 310 309 309 311 311 310 309 310 304 302 298 299 302 305 306 303 306 298 296 296 298 296 296 299 302 303 304 304 305 309 311 309 309 309 308
309 311 311 311 311 311 310 310 307 309 307 309 310 309 308 310 308 301 299 298 298 303 305 301 296 295 296 298 296 296 295 302 302 302 303 304 305 306 305 308 312 310 310
305 307 308 309 308 310 309 309 310 310 307 305 307 308 308 309 308 306 307 304 299 301 301 301 299 298 297 300 302 303 303 303 303 304 305 305 304 305 305 305 306 307 308
305 305 305 308 308 308 309 308 308 310 308 308 308 309 308 307 308 303 303 306 307 303 301 301 301 301 302 301 301 302 303 305 305 305 304 305 304 304 304 304 307 305 305
304 303 303 305 307 308 307 308 303 300 300 297 297 303 309 302 298 296 295 295 295 294 300 301 301 299 299 299 298 299 300 301 302 304 304 304 304 304 303 303 303 302 302
304 302 301 301 305 306 306 306 304 306 302 299 296 295 294 299 296 294 293 293 292 293 303 300 300 299 298 298 298 298 300 303 305 304 306 305 305 303 300 302 302 301 302
304 299 300 300 301 303 304 306 306 305 306 309 302 300 297 294 293 292 292 293 296 295 300 301 300 298 298 298 298 299 301 302 302 303 305 306 303 301 301 302 302 301 301
302 300 300 300 300 299 303 304 305 306 306 307 310 304 297 292 291 290 291 303 302 300 299 298 298 298 298 298 299 300 302 302 302 301 302 302 302 301 302 302 302 294 295
301 298 296 299 299 300 301 303 304 305 306 307 307 308 308 300 301 302 297 296 298 298 299 298 299 299 299 300 301 301 302 302 302 301 301 301 300 300 300 301 301 300 300
299 299 295 300 300 300 300 302 302 302 301 302 302 305 293 305 305 306 305 298 298 299 299 300 300 300 301 301 301 301 302 304 302 301 300 300 300 300 301 302 301 300 300
299 299 299 299 299 297 296 297 299 299 299 299 300 301 291 302 307 307 307 305 304 303 303 303 302 302 302 302 302 302 303 303 303 302 301 300 299 299 299 300 300 300 299
299 297 298 297 296 294 295 296 295 297 296 297 299 299 301 302 305 309 308 308 309 309 306 305 304 304 305 304 304 304 303 304 305 304 302 301 300 299 300 299 299 299 298
299 299 297 296 295 294 294 295 296 293 295 296 298 298 300 301 303 305 309 311 311 312 312 308 307 306 309 307 306 305 304 305 305 304 303 303 302 298 300 299 299 299 299
300 298 296 295 294 295 295 295 294 294 295 295 296 297 298 300 302 305 307 309 310 310 312 312 311 311 311 311 308 307 300 289 300 296 303 303 302 301 299 298 298 297 297
299 298 296 296 295 295 295 295 293 293 293 294 295 296 298 300 302 305 308 309 310 310 312 312 312 312 312 312 311 299 290 289 293 288 300 301 300 298 297 297 297 296 297
Wind_Speed
5 5 6 6 4 4 5 5 4 4 4 5 4 4 4 6 6 4 4 5 4 5 6 6 5 3 2 2 2 2 2 4 5 3 1 4 4 7 6 6 6 5 5
6 6 6 6 5 5 6 5 5 5 4 5 4 3 4 5 5 5 5 4 5 6 6 6 7 4 5 5 4 5 4 3 4 7 2 2 4 3 5 6 4 4 4
5 6 6 7 5 6 7 6 6 4 4 4 4 3 3 4 4 4 3 4 4 5 5 5 6 6 7 4 5 6 5 5 4 4 3 2 3 3 4 3 2 1 2
4 5 6 7 7 7 6 5 6 3 4 4 4 3 2 3 4 4 3 3 3 3 4 5 6 6 6 5 6 5 4 5 4 5 3 3 2 3 2 2 1 1 2
6 5 7 8 6 6 6 5 4 4 3 3 4 3 2 1 2 3 3 3 3 3 3 3 4 6 8 6 3 3 4 3 3 3 2 1 1 1 1 2 2 1 1
7 8 6 6 6 6 5 5 4 4 3 3 4 4 3 2 3 4 3 3 4 3 2 2 2 5 6 9 7 4 4 4 2 2 1 1 1 1 2 1 2 2 1
6 7 7 8 6 5 5 5 5 5 3 4 4 4 4 4 6 4 6 4 3 3 3 2 2 3 5 4 6 7 5 5 1 3 3 2 3 3 3 2 2 2 2
9 8 7 8 7 5 5 5 3 3 4 4 4 5 4 4 6 5 3 3 4 3 2 2 2 2 2 3 4 5 4 3 2 2 3 3 2 4 2 2 3 1 1
8 8 9 6 8 5 6 5 4 3 3 4 4 4 5 6 8 8 4 2 4 4 4 3 3 3 3 5 4 3 3 2 4 1 2 3 4 6 6 5 3 2 0
8 9 7 7 8 6 6 6 4 4 4 4 4 5 6 7 6 8 6 3 3 3 4 3 1 5 7 6 4 3 2 1 3 3 1 1 1 4 9 5 4 3 2
8 7 7 6 7 5 4 3 4 4 4 5 5 4 6 6 8 9 10 5 4 3 3 3 1 5 8 8 6 3 3 2 1 1 2 3 2 3 5 6 5 4 3
10 8 5 4 6 4 6 6 5 3 4 5 3 4 4 6 9 9 10 12 8 4 4 3 3 1 4 5 5 5 5 4 1 1 2 2 2 1 1 4 6 7 5
10 8 6 6 3 4 5 5 3 4 5 4 4 4 3 3 4 8 10 12 10 5 4 5 4 1 2 2 7 6 6 3 3 2 3 2 2 1 3 2 3 5 6
7 7 6 6 6 5 6 5 4 4 4 3 5 4 5 3 4 2 3 5 8 9 4 3 2 2 3 3 3 3 4 4 5 5 4 3 2 2 1 1 1 1 3
6 6 6 5 5 5 4 5 5 6 5 5 5 5 4 4 4 4 5 4 6 6 4 2 2 2 3 3 3 3 3 4 5 5 5 5 5 3 3 2 2 2 4
8 5 5 6 6 5 5 7 7 8 10 10 9 5 4 9 9 8 7 7 7 13 3 4 4 4 4 4 4 4 4 5 6 6 7 7 7 6 5 3 3 3 4
8 7 5 5 5 5 4 4 6 7 9 10 7 10 12 11 8 7 3 4 8 11 4 5 5 5 5 4 5 5 4 4 4 5 5 5 5 4 4 4 3 4 4
8 8 5 6 5 5 5 5 4 4 7 5 4 7 5 7 10 8 7 10 4 4 5 6 6 5 5 5 5 6 6 4 5 5 5 5 4 4 4 4 4 5 4
8 5 6 6 6 6 6 5 4 5 5 6 5 2 3 3 4 4 9 3 5 6 7 6 6 5 5 5 6 6 6 5 5 4 5 5 5 4 4 4 4 5 3
8 9 6 5 6 6 6 5 4 5 5 5 5 3 2 4 4 2 4 4 5 6 5 6 5 6 6 6 6 6 6 5 5 6 6 5 4 4 4 4 5 5 5
6 6 8 6 6 6 6 7 6 5 6 6 7 8 6 2 4 4 4 4 6 7 7 8 7 7 7 7 6 6 7 6 6 6 5 5 5 5 6 5 5 5 5
6 6 6 6 7 7 7 6 7 7 7 8 8 6 9 5 5 5 5 4 5 7 6 6 6 7 7 7 8 8 7 7 6 7 7 6 6 6 6 6 6 6 5
6 7 7 7 6 7 6 6 6 6 7 8 8 8 6 5 6 5 4 4 5 4 4 6 7 7 7 6 7 7 8 8 8 7 8 8 7 7 7 8 7 6 6
5 6 7 7 6 7 7 6 6 6 7 7 7 8 7 8 7 8 7 6 5 5 4 4 6 10 8 5 5 7 8 8 6 8 10 8 9 8 8 8 7 8 6
3 5 6 5 6 8 7 7 7 7 7 8 8 8 8 9 9 8 5 5 6 5 7 5 6 10 13 9 7 9 8 8 10 8 8 10 11 12 9 8 8 7 7
5 5 5 4 4 7 6 7 7 7 8 7 7 7 8 8 7 7 6 7 7 6 6 5 6 8 8 8 7 6 7 8 9 10 8 8 8 7 8 9 11 7 8
Wind_Direction
273 275 276 267 273 275 274 275 277 283 291 292 306 313 324 326 321 340 323 328 12 346 348 13 9 40 39 80 129 116 128 132 107 84 59 32 48 104 96 103 112 122 144
262 273 265 262 248 262 273 270 261 268 286 278 283 304 309 317 323 350 348 4 11 8 4 10 15 17 56 49 86 86 79 84 115 106 95 105 103 93 101 117 125 150 173
240 264 263 261 254 256 262 268 271 255 269 280 268 286 318 326 335 357 8 11 26 17 21 19 14 26 46 53 78 91 92 93 86 101 91 67 84 72 81 77 84 50 232
237 257 260 263 258 248 254 264 268 268 276 275 261 279 325 332 341 5 7 12 24 32 26 16 21 40 47 52 74 82 83 86 89 96 82 78 69 58 66 101 135 11 268
254 246 255 256 258 259 248 261 272 260 260 264 252 262 281 295 308 337 337 343 1 16 33 25 20 36 48 61 72 82 100 94 95 86 93 97 100 121 152 119 163 201 197
264 267 263 265 255 261 246 272 243 268 267 261 250 236 264 264 270 300 306 319 338 360 4 82 59 57 37 39 55 109 129 122 106 112 101 125 153 151 151 106 58 36 351
265 269 267 272 254 261 249 258 239 238 236 261 261 220 236 253 270 287 315 310 319 317 323 340 54 44 47 39 34 51 56 52 116 151 147 171 157 170 134 128 170 189 223
283 282 263 269 263 256 245 237 228 224 227 246 257 239 234 242 241 268 279 312 313 306 296 257 204 169 74 69 76 78 68 74 75 97 92 142 126 150 154 160 161 173 265
266 269 270 264 261 251 250 223 225 218 224 227 244 255 240 267 228 229 209 285 308 320 328 307 226 169 142 118 86 64 35 23 17 92 181 235 215 191 167 147 166 178 203
271 260 269 265 260 246 229 241 219 193 222 232 232 231 245 258 255 241 202 206 271 294 312 326 280 171 160 146 114 109 75 3 6 7 352 325 298 215 191 209 163 177 181
311 283 276 273 268 261 244 218 244 218 218 241 222 239 244 237 257 231 200 197 217 244 271 295 244 163 171 161 150 162 182 151 61 352 311 286 273 234 210 209 205 196 181
331 300 276 290 317 289 243 229 229 210 227 249 250 266 246 246 237 237 206 213 184 199 233 244 256 277 203 183 183 228 194 168 182 291 308 313 321 331 202 217 217 221 229
339 360 352 326 282 331 300 257 229 213 212 234 239 256 260 251 249 242 207 204 208 207 220 223 234 252 173 234 242 245 193 209 209 230 236 244 218 238 276 247 221 228 239
339 341 328 321 325 21 344 293 246 214 198 222 240 253 274 278 297 243 205 199 212 219 203 205 215 245 242 250 262 207 214 216 214 228 234 237 255 246 254 203 254 220 251
325 329 330 324 325 342 309 284 281 249 195 207 231 210 217 272 283 219 185 199 208 206 152 203 217 222 239 245 247 248 239 228 232 233 240 242 241 241 247 197 223 210 240
323 329 330 323 325 318 314 323 290 266 247 238 245 222 243 243 269 273 242 219 204 151 165 198 213 216 236 246 250 261 249 243 244 246 249 244 237 232 236 206 201 222 237
317 324 332 326 315 314 311 313 311 332 292 273 258 249 230 248 265 272 268 202 174 160 208 203 218 214 234 239 241 233 247 237 246 260 244 227 220 233 211 224 210 221 235
328 308 318 313 313 311 303 300 299 298 312 318 243 236 246 265 276 257 167 119 134 232 210 212 223 221 225 235 244 245 252 250 243 248 229 216 201 205 209 222 212 222 231
313 316 322 318 315 312 308 302 306 314 315 314 315 266 186 32 293 135 162 225 197 214 211 219 222 226 230 235 242 246 245 255 249 216 211 198 187 194 221 230 228 218 216
314 313 308 318 318 337 332 320 333 341 334 325 312 278 167 204 232 215 184 238 233 237 226 229 226 231 237 238 238 237 244 238 221 208 212 209 190 199 220 214 214 221 219
330 328 339 349 356 353 355 354 352 347 345 335 326 335 312 273 292 280 242 214 233 239 228 227 230 231 234 231 232 231 232 239 219 210 204 212 194 210 223 219 220 228 242
356 348 350 356 358 359 353 349 349 347 340 331 327 320 325 291 268 272 269 244 236 235 239 234 237 232 220 214 212 219 228 232 219 214 214 210 206 215 227 232 228 230 234
349 355 358 2 350 345 349 349 344 331 326 322 319 318 316 311 314 297 272 275 270 264 230 237 241 249 238 222 217 216 215 222 218 203 210 210 212 217 220 227 222 225 228
311 334 343 341 337 349 346 332 330 322 318 318 315 317 309 305 295 292 297 300 301 287 282 254 242 246 255 222 220 216 221 232 219 212 200 209 214 210 219 219 218 223 235
335 336 337 329 340 348 335 343 342 333 327 326 322 317 306 298 294 290 287 289 292 280 283 275 263 261 259 240 230 227 218 199 215 204 199 208 213 208 207 212 211 218 225
328 322 330 314 316 341 340 343 338 337 336 327 328 324 319 330 295 289 285 286 289 279 268 272 279 285 286 276 264 238 245 228 217 205 203 200 201 202 205 212 212 211 214